Weather History for KTTF - October, 2013

Change the Weather History Date:

Thursday, October 10, 2013

  Actual Average Record
Temperature  
Mean Temperature 56 °F -  
Max Temperature 71 °F 60 °F 87 °F (1939)
Min Temperature 41 °F 43 °F 29 °F (1993)
Degree Days  
Heating Degree Days 9    
Growing Degree Days 6 (Base 50)    
Moisture  
Dew Point 48 °F    
Average Humidity 80    
Maximum Humidity 100    
Minimum Humidity 46    
Precipitation  
Precipitation 0.00 in - - ()
Sea Level Pressure  
Sea Level Pressure 30.18 in    
Wind  
Wind Speed 2 mph (East)    
Max Wind Speed 9 mph    
Max Gust Speed -    
Visibility 7 miles    
Events Fog    
Averages and records for this station are not official NWS values.
T = Trace of Precipitation, MM = Missing Value Source: NWS Daily Summary

Daily Weather History Graph

Daily Weather History Graph

Search for Another Location

Airport or City:

Trip Planner

Search our weather history database for the weather conditions in past years. The results will help you decide how hot, cold, wet, or windy it might be!

Date:

Astronomy

Oct. 10, 2013 Rise Set
Actual Time 7:40 AM EDT 6:59 PM EDT
Civil Twilight 7:12 AM EDT 7:27 PM EDT
Nautical Twilight 6:40 AM EDT 8:00 PM EDT
Astronomical Twilight 6:08 AM EDT 8:32 PM EDT
Moon 1:35 PM EDT (10/10) 11:33 PM EDT (10/10)
Length of Visible Light 12h 14m
Length of Day
11h 19m
Waxing Crescent, 35% of the Moon is Illuminated
Oct 10
Waxing Crescent
Oct 11
First Quarter
Oct 18
Full
Oct 26
Last Quarter
Nov 3
New

Hourly Weather History & Observations

Time (EDT) Temp. Windchill Dew Point Humidity Pressure Visibility Wind Dir Wind Speed Gust Speed Precip Events Conditions
12:12 AM 48.2 °F - 46.4 °F 93% 30.20 in 1.5 mi Calm Calm - N/A   Mist
12:32 AM 50.0 °F - 48.2 °F 94% 30.20 in 10.0 mi North 3.5 mph - N/A   Clear
12:52 AM 50.0 °F - 48.2 °F 94% 30.20 in 10.0 mi Calm Calm - N/A   Clear
1:12 AM 48.2 °F - 48.2 °F 100% 30.20 in 10.0 mi North 3.5 mph - N/A   Clear
1:33 AM 48.2 °F - 46.4 °F 93% 30.20 in 10.0 mi Calm Calm - N/A   Clear
1:53 AM 46.4 °F - 44.6 °F 93% 30.20 in 10.0 mi Calm Calm - N/A   Clear
2:13 AM 46.4 °F - 46.4 °F 100% 30.20 in 2.0 mi Calm Calm - N/A   Clear
2:33 AM 48.2 °F - 46.4 °F 93% 30.20 in 3.0 mi North 3.5 mph - N/A   Clear
2:53 AM 46.4 °F 45.2 °F 46.4 °F 100% 30.20 in 7.0 mi North 3.5 mph - N/A   Clear
3:13 AM 46.4 °F 44.3 °F 46.4 °F 100% 30.20 in 0.8 mi North 4.6 mph - N/A   Mostly Cloudy
3:33 AM 46.4 °F 45.2 °F 46.4 °F 100% 30.19 in 1.8 mi North 3.5 mph - N/A   Mist
3:53 AM 46.4 °F - 46.4 °F 100% 30.19 in 0.5 mi Calm Calm - N/A Fog Fog
4:14 AM 44.6 °F 43.1 °F 44.6 °F 100% 30.19 in 3.0 mi North 3.5 mph - N/A   Scattered Clouds
4:34 AM 46.4 °F - 46.4 °F 100% 30.19 in 0.5 mi Calm Calm - N/A Fog Fog
4:54 AM 44.6 °F - 44.6 °F 100% 30.20 in 0.2 mi Calm Calm - N/A Fog Fog
5:14 AM 44.6 °F - 44.6 °F 100% 30.20 in - Calm Calm - N/A   Overcast
5:34 AM 42.8 °F - 42.8 °F 100% 30.20 in 0.5 mi Calm Calm - N/A Fog Fog
5:54 AM 42.8 °F - 42.8 °F 100% 30.20 in 0.2 mi Calm Calm - N/A Fog Fog
6:14 AM 42.8 °F - 42.8 °F 100% 30.20 in 0.2 mi Calm Calm - N/A Fog Fog
6:34 AM 42.8 °F - 42.8 °F 100% 30.20 in 0.2 mi Calm Calm - N/A Fog Fog
6:54 AM 42.8 °F - 42.8 °F 100% 30.20 in 0.2 mi Calm Calm - N/A Fog Fog
7:14 AM 42.8 °F - 42.8 °F 100% 30.20 in 0.2 mi Calm Calm - N/A Fog Fog
7:34 AM 42.8 °F - 42.8 °F 100% 30.20 in 1.5 mi Calm Calm - N/A   Overcast
7:54 AM 42.8 °F - 41.0 °F 93% 30.20 in 1.8 mi Calm Calm - N/A   Mostly Cloudy
8:14 AM 41.0 °F - 39.2 °F 93% 30.21 in 0.2 mi Calm Calm - N/A Fog Fog
8:35 AM 44.6 °F - 44.6 °F 100% 30.21 in 3.0 mi Calm Calm - N/A   Scattered Clouds
8:55 AM 48.2 °F - 48.2 °F 100% 30.22 in 5.0 mi Calm Calm - N/A   Clear
9:15 AM 51.8 °F - 51.8 °F 100% 30.22 in 7.0 mi Calm Calm - N/A   Clear
9:35 AM 55.4 °F - 53.6 °F 94% 30.21 in 10.0 mi Calm Calm - N/A   Clear
9:55 AM 57.2 °F - 57.2 °F 100% 30.21 in 10.0 mi Calm Calm - N/A   Clear
10:15 AM 60.8 °F - 57.2 °F 88% 30.21 in 10.0 mi Calm Calm - N/A   Clear
10:35 AM 62.6 °F - 55.4 °F 77% 30.21 in 10.0 mi ESE 3.5 mph - N/A   Clear
10:55 AM 62.6 °F - 53.6 °F 72% 30.21 in 10.0 mi SE 4.6 mph - N/A   Clear
11:16 AM 66.2 °F - 50.0 °F 56% 30.21 in 10.0 mi SE 5.8 mph - N/A   Clear
11:36 AM 66.2 °F - 46.4 °F 49% 30.21 in 10.0 mi SE 5.8 mph - N/A   Clear
11:56 AM 68.0 °F - 48.2 °F 49% 30.21 in 10.0 mi SSE 4.6 mph - N/A   Clear
12:16 PM 69.8 °F - 48.2 °F 46% 30.21 in 10.0 mi East 5.8 mph - N/A   Clear
12:36 PM 68.0 °F - 48.2 °F 49% 30.21 in 10.0 mi SE 5.8 mph - N/A   Clear
12:56 PM 69.8 °F - 51.8 °F 53% 30.21 in 10.0 mi ENE 4.6 mph - N/A   Clear
1:16 PM 69.8 °F - 50.0 °F 49% 30.20 in 10.0 mi East 5.8 mph - N/A   Clear
1:36 PM 69.8 °F - 50.0 °F 49% 30.20 in 10.0 mi ESE 4.6 mph - N/A   Clear
1:56 PM 69.8 °F - 48.2 °F 46% 30.19 in 10.0 mi East 8.1 mph - N/A   Clear
2:17 PM 69.8 °F - 48.2 °F 46% 30.18 in 10.0 mi SE 6.9 mph - N/A   Clear
2:37 PM 69.8 °F - 48.2 °F 46% 30.17 in 10.0 mi ESE 5.8 mph - N/A   Clear
2:52 PM 69.8 °F - 48.2 °F 46% 30.16 in 10.0 mi ESE 3.5 mph - N/A   Clear
3:12 PM 71.6 °F - 50.0 °F 46% 30.16 in 10.0 mi SE 4.6 mph - N/A   Clear
3:32 PM 69.8 °F - 48.2 °F 46% 30.16 in 10.0 mi SE 5.8 mph - N/A   Clear
3:52 PM 69.8 °F - 48.2 °F 46% 30.15 in 10.0 mi SE 5.8 mph - N/A   Clear
4:12 PM 69.8 °F - 48.2 °F 46% 30.15 in 10.0 mi ESE 9.2 mph - N/A   Clear
4:32 PM 69.8 °F - 50.0 °F 49% 30.15 in 10.0 mi ESE 8.1 mph - N/A   Clear
4:52 PM 68.0 °F - 48.2 °F 49% 30.15 in 10.0 mi SE 8.1 mph - N/A   Clear
5:12 PM 68.0 °F - 46.4 °F 46% 30.15 in 10.0 mi ESE 4.6 mph - N/A   Clear
5:32 PM 68.0 °F - 48.2 °F 49% 30.14 in 10.0 mi ESE 5.8 mph - N/A   Clear
5:53 PM 66.2 °F - 48.2 °F 52% 30.14 in 10.0 mi SE 8.1 mph - N/A   Clear
6:13 PM 64.4 °F - 48.2 °F 56% 30.13 in 10.0 mi ESE 8.1 mph - N/A   Clear
6:33 PM 64.4 °F - 50.0 °F 59% 30.13 in 10.0 mi ESE 3.5 mph - N/A   Clear
6:53 PM 62.6 °F - 51.8 °F 68% 30.13 in 10.0 mi ESE 4.6 mph - N/A   Clear
7:13 PM 60.8 °F - 51.8 °F 72% 30.14 in 10.0 mi Calm Calm - N/A   Clear
7:33 PM 57.2 °F - 51.8 °F 82% 30.14 in 10.0 mi Calm Calm - N/A   Clear
7:53 PM 55.4 °F - 51.8 °F 88% 30.14 in 10.0 mi Calm Calm - N/A   Clear
8:13 PM 53.6 °F - 50.0 °F 88% 30.14 in 10.0 mi NNW 3.5 mph - N/A   Clear
8:33 PM 51.8 °F - 50.0 °F 94% 30.14 in 10.0 mi Calm Calm - N/A   Clear
8:54 PM 50.0 °F - 48.2 °F 94% 30.13 in 10.0 mi North 3.5 mph - N/A   Clear
9:14 PM 51.8 °F - 48.2 °F 88% 30.13 in 10.0 mi Calm Calm - N/A   Clear
9:34 PM 48.2 °F - 48.2 °F 100% 30.13 in 7.0 mi NE 3.5 mph - N/A   Clear
9:54 PM 50.0 °F - 48.2 °F 94% 30.13 in 10.0 mi Calm Calm - N/A   Clear
10:14 PM 50.0 °F - 48.2 °F 94% 30.13 in 10.0 mi Calm Calm - N/A   Clear
10:34 PM 51.8 °F - 48.2 °F 88% 30.13 in 10.0 mi Calm Calm - N/A   Clear
10:54 PM 48.2 °F - 48.2 °F 100% 30.12 in 7.0 mi Calm Calm - N/A   Clear
11:14 PM 46.4 °F - 46.4 °F 100% 30.12 in 10.0 mi Calm Calm - N/A   Clear
11:34 PM 46.4 °F - 46.4 °F 100% 30.12 in 10.0 mi Calm Calm - N/A   Clear
11:54 PM 46.4 °F - 44.6 °F 93% 30.11 in 7.0 mi Calm Calm - N/A   Clear